Vertical_Velocity
-2 -1 -1 2 -2 0 -0 -0 0 0 -4 1 1 -1 -0 -1 -0 1 -0 1 -0 -0 0 -1 -0 -2 -2 -1 -3 -2 -1 -2 1 -1 0 -3 -3 -2 -6 -6 -6 -1 -1 -2 0 -1 -1
0 0 -0 -1 2 -1 1 -1 0 0 -1 0 -1 -1 0 -0 -0 -1 1 0 1 -1 2 -0 0 -1 -0 4 -2 1 -0 2 -0 -0 -4 -1 1 0 0 0 0 2 -2 2 2 -1 5
2 -0 1 -5 3 -1 0 -0 -1 -1 -0 -2 0 -2 1 -2 -0 -1 0 -0 -0 -0 0 0 -0 -0 -1 -3 -1 -1 -1 -1 -2 -3 -1 -1 -5 -2 -1 -2 -2 -4 -2 -1 -4 2 -6
-1 2 0 -1 -1 0 -2 1 0 -1 -0 -2 -2 -1 -1 -2 -1 -1 -1 0 0 -0 -0 -1 -0 -0 -2 -1 1 -2 -1 -1 -2 -2 -4 -2 -0 -1 -1 -1 -0 -1 0 -5 1 0 2
-2 -0 -0 -0 -2 1 -2 -0 1 -0 -2 1 -3 -2 -1 -1 -1 -0 0 0 -0 1 1 0 0 -1 -2 -2 -0 1 0 -1 -1 0 -1 -3 -2 -3 -6 -4 -1 -0 -2 -3 -2 -4 -2
-1 -3 -0 -0 0 -2 1 -3 -0 0 -2 -1 -0 -0 -2 -2 -1 -1 -1 2 -0 0 0 -0 1 1 -1 -1 0 -0 -2 -1 -0 -1 -3 -3 -2 -3 2 -0 -2 -1 -2 -4 -3 -2 -1
-0 2 -2 0 1 -2 -0 -0 -1 0 -1 -2 -3 -1 -2 -1 -1 -1 -1 0 1 0 1 -2 -0 -0 1 -1 -1 -3 -0 -1 0 -2 2 0 -2 -2 -1 0 -2 -3 -2 -0 3 -3 -5
-0 1 0 0 0 -3 -0 -1 -1 -1 -1 -1 -2 -1 -1 -2 -1 -1 -1 -1 1 0 0 0 -2 -2 -1 -1 -3 -3 -2 -1 0 -2 -1 -1 -2 0 -0 -1 -1 -3 -3 -2 -2 6 -1
3 1 -2 -2 -0 -0 -2 -0 -0 -2 -1 -1 -3 -1 -1 -0 -1 1 -2 -1 -1 -0 -1 -0 -1 0 -2 -2 -2 -2 -2 -1 -2 -1 -2 -1 -1 -2 -4 -3 -1 -2 -2 2 0 -4 -2
-4 4 1 -1 -2 -0 -2 -0 -2 -1 -1 -2 -2 -1 -1 -0 1 -2 -0 0 1 -1 -1 -1 -2 -2 -1 -1 -1 -2 -2 -3 -3 -2 -2 -3 -2 -1 -2 -2 -3 -2 1 -2 -4 -2 -3
-2 -1 2 1 -1 -1 -2 0 -1 -0 -2 0 -2 -0 -0 -2 -1 -1 -1 -0 -0 0 -5 -1 -2 0 -1 -1 -2 -2 -1 -0 -0 -2 -4 -1 -0 0 -2 -2 3 5 -4 -5 1 2 3
1 -1 -2 2 -0 -1 -2 -1 -0 -1 -2 -2 -1 -3 -1 -1 -1 -3 -0 -0 -1 -1 -4 -2 -1 -2 -1 1 -2 -3 -4 -2 -1 -2 -2 -3 -3 -3 -2 -1 -3 -0 0 3 3 -2 -3
-0 1 -2 3 0 1 -2 -1 0 -3 0 -2 -2 -3 -1 -1 -1 -1 -2 0 -1 -2 -1 -1 -1 -0 -1 -2 -0 -2 -1 -1 -5 -4 -4 0 -2 -0 1 -1 -3 -1 -2 -5 -7 -4 -5
-1 -2 -0 2 -0 -1 -0 -1 -1 -3 -0 -2 -2 -4 -0 -4 -0 -2 -2 -0 -1 -0 -0 -1 -3 -2 -1 -1 -2 -2 -2 -1 -1 -2 -4 -5 -7 -1 -3 2 0 0 -2 -2 -2 -2 -5
-2 -1 0 3 -1 -1 1 -1 -2 -2 1 -2 -2 -5 0 -3 -2 1 -1 -2 -0 -3 -2 -1 -1 -1 -1 -1 -2 -1 -1 -0 -1 -2 -2 0 -3 2 -1 -1 1 -0 -2 0 -1 -1 0
-2 0 3 -4 3 -1 1 -1 -1 -0 1 -2 -1 -3 -1 -2 -4 -2 -0 -3 -2 -0 -1 -2 -1 0 -3 -1 -2 -2 0 -0 -1 -1 0 -0 -7 -2 -2 -0 1 1 -1 0 1 -3 -2
-1 3 -3 1 -2 2 3 -2 -3 2 0 -3 0 -1 -2 -4 -1 -5 1 -4 -4 -2 -1 -2 -2 -0 -1 -0 -1 -1 1 -1 0 -1 -0 -1 -3 -2 0 -1 0 4 -3 1 -2 1 -1
1 -5 -1 0 -0 2 3 -3 1 1 -1 -2 -1 1 -3 -4 -5 -2 -2 -1 -3 -2 -3 -1 -2 -1 -3 -1 -1 -1 -1 -2 -1 1 -1 -0 0 -6 2 1 -4 -0 -3 -2 2 -3 -1
-3 1 -0 -2 -1 2 2 -0 -0 2 -2 -3 0 -0 -0 -4 -3 -1 -3 -0 -3 -1 -3 -1 -1 -2 -1 0 -2 -4 0 1 2 2 -1 2 2 -5 2 4 -2 -6 -0 3 4 4 -5
2 -2 -3 1 0 0 -1 1 -2 1 0 -0 -0 -1 -4 -4 -3 -2 -2 -1 -2 -2 -2 -2 -1 -3 -1 -1 -0 -3 -1 -4 -2 1 -2 -3 -4 -1 -2 4 6 -4 5 12 5 3 -3
-0 2 -1 -5 2 -3 1 0 -2 -0 -1 -0 2 -1 -2 -3 -2 -1 -1 -1 -2 -1 -2 0 -1 -3 0 0 -0 -2 -2 2 1 -2 1 3 -3 1 -5 4 1 -6 1 10 0 3 1
1 1 3 0 -2 1 0 1 -2 1 -2 -1 3 1 -3 -1 -1 -2 -2 -1 0 0 -3 0 -0 0 2 -3 3 1 -0 1 -2 -4 0 -3 -3 4 -20 2 -3 -15 6 2 3 2 -3
1 1 1 2 -0 1 1 1 -2 -0 -0 -1 4 -1 -0 -2 0 -0 -1 1 0 -1 -3 -2 -3 -4 -2 -1 -0 0 -1 -1 -3 -1 4 3 2 1 -12 0 -5 -0 -3 -2 0 0 3
2 -1 0 -0 1 -1 1 1 1 1 -1 0 1 -2 0 -2 -2 2 -5 -2 1 -2 1 -1 -3 -0 -3 -0 -3 -2 -1 -0 1 2 3 1 4 1 -8 -3 -2 -1 2 -0 -1 -0 -0
4 0 -2 -0 4 -1 3 -6 3 0 -1 0 1 -1 2 -6 0 -2 0 0 -0 -3 -2 -4 3 3 2 -2 -3 -7 -7 -3 -3 -1 3 4 5 -0 -2 -1 -11 -4 4 -1 -1 -5 3
-0 2 1 0 -0 5 -4 1 3 -2 -0 -1 2 0 0 1 -17 -2 -1 -3 -1 -0 3 -2 1 3 2 -0 -0 -0 -4 -2 -1 -2 -3 -1 3 2 2 1 -1 1 0 2 -3 -13 -3
-3 -4 -1 1 3 -1 3 2 -4 6 -1 -4 -0 2 0 -4 -3 1 -3 -2 -2 -1 1 1 3 -2 -0 1 3 -1 -2 -1 -3 -2 -2 -1 1 -2 2 -1 -10 -1 3 -1 -1 -4 0
7 -6 6 -8 -4 2 -1 -2 -1 2 5 0 -2 6 5 3 6 2 -1 -0 -1 -3 0 3 5 -6 1 -1 1 1 1 -0 -3 -2 -1 -1 2 -2 4 -0 -11 -4 0 2 2 2 0
9 1 8 1 0 -5 -11 -9 -6 3 8 8 2 4 2 16 2 -1 1 2 0 2 6 -0 -2 -1 0 0 1 -3 -2 -0 1 -4 -1 -6 -0 -2 0 -6 -4 0 -3 2 1 -0 1
Height
3187 3188 3187 3186 3183 3183 3180 3178 3176 3174 3172 3170 3167 3164 3163 3161 3159 3158 3157 3156 3156 3155 3155 3155 3155 3154 3154 3154 3153 3152 3150 3148 3148 3147 3146 3146 3146 3145 3145 3144 3143 3142 3142 3142 3141 3141 3140
3188 3187 3188 3188 3185 3184 3182 3180 3178 3175 3174 3171 3169 3166 3163 3162 3161 3159 3157 3156 3156 3156 3156 3156 3156 3155 3156 3156 3154 3153 3151 3150 3148 3148 3147 3147 3146 3145 3144 3144 3144 3144 3143 3142 3142 3141 3140
3189 3188 3188 3189 3187 3185 3184 3182 3180 3177 3175 3173 3170 3168 3164 3163 3162 3160 3159 3158 3157 3157 3157 3157 3157 3157 3156 3156 3154 3154 3152 3151 3150 3149 3149 3148 3146 3146 3144 3144 3143 3143 3142 3143 3142 3141 3139
3188 3188 3188 3188 3188 3187 3185 3183 3182 3179 3175 3174 3172 3168 3166 3163 3162 3161 3160 3158 3158 3158 3158 3158 3158 3158 3157 3156 3155 3154 3153 3152 3151 3150 3149 3148 3146 3146 3145 3144 3143 3142 3142 3142 3141 3139 3137
3187 3188 3188 3188 3189 3188 3186 3184 3182 3180 3177 3174 3172 3168 3166 3163 3162 3161 3159 3159 3159 3158 3158 3158 3159 3159 3158 3157 3156 3154 3153 3152 3151 3150 3148 3147 3146 3146 3145 3144 3143 3142 3141 3140 3139 3137 3136
3187 3187 3189 3189 3188 3188 3187 3185 3183 3181 3178 3175 3171 3168 3165 3162 3161 3161 3160 3159 3159 3159 3159 3159 3159 3162 3160 3158 3156 3155 3153 3152 3151 3149 3148 3147 3146 3144 3144 3143 3142 3140 3139 3137 3135 3134 3131
3186 3186 3188 3188 3188 3188 3187 3185 3183 3181 3179 3175 3172 3167 3164 3162 3161 3161 3160 3160 3162 3161 3159 3159 3161 3160 3159 3159 3157 3156 3154 3153 3151 3150 3148 3147 3146 3145 3144 3141 3141 3140 3138 3135 3133 3129 3127
3185 3184 3184 3187 3187 3188 3187 3185 3183 3181 3180 3176 3172 3168 3165 3163 3161 3161 3161 3160 3160 3162 3161 3161 3161 3160 3159 3158 3157 3156 3155 3154 3151 3149 3147 3148 3146 3145 3143 3142 3141 3139 3136 3134 3129 3125 3121
3184 3183 3182 3185 3186 3186 3187 3185 3183 3181 3180 3177 3173 3169 3166 3163 3163 3162 3161 3161 3161 3161 3162 3162 3162 3161 3161 3160 3158 3156 3155 3153 3151 3149 3148 3147 3146 3144 3143 3142 3141 3139 3135 3132 3130 3125 3119
3183 3181 3181 3182 3185 3185 3185 3185 3183 3181 3180 3177 3174 3169 3167 3164 3165 3162 3161 3160 3160 3161 3163 3165 3162 3161 3160 3158 3158 3156 3154 3154 3151 3150 3148 3148 3146 3145 3143 3140 3138 3134 3134 3131 3128 3124 3120
3179 3180 3180 3180 3183 3184 3184 3184 3183 3181 3179 3176 3174 3170 3166 3164 3163 3162 3162 3160 3160 3163 3164 3167 3163 3162 3159 3160 3159 3157 3154 3152 3151 3150 3150 3150 3146 3144 3141 3140 3136 3136 3132 3127 3121 3116 3115
3176 3177 3179 3178 3181 3182 3182 3183 3182 3180 3178 3176 3174 3171 3166 3165 3163 3162 3161 3160 3161 3164 3162 3164 3163 3162 3161 3159 3158 3156 3154 3154 3152 3150 3148 3146 3145 3143 3140 3137 3134 3130 3125 3120 3118 3119 3120
3172 3174 3175 3175 3178 3179 3180 3181 3180 3179 3177 3175 3173 3170 3167 3164 3164 3162 3161 3161 3162 3160 3164 3164 3163 3162 3161 3159 3158 3156 3154 3153 3152 3151 3147 3145 3143 3141 3139 3137 3133 3130 3125 3121 3121 3119 3119
3168 3171 3171 3172 3175 3176 3178 3178 3179 3178 3176 3173 3172 3170 3167 3164 3163 3162 3161 3162 3160 3162 3161 3162 3162 3161 3161 3158 3158 3156 3154 3153 3152 3151 3148 3145 3141 3142 3139 3138 3135 3130 3130 3131 3133 3126 3116
3165 3165 3167 3170 3171 3173 3175 3176 3176 3176 3175 3172 3171 3169 3167 3165 3163 3161 3162 3161 3160 3161 3162 3161 3161 3160 3161 3159 3158 3156 3153 3152 3151 3150 3151 3147 3143 3141 3139 3137 3136 3132 3132 3132 3129 3123 3119
3159 3161 3163 3166 3168 3169 3172 3173 3173 3173 3173 3171 3169 3168 3166 3165 3163 3162 3161 3161 3160 3160 3160 3160 3160 3160 3159 3158 3156 3155 3152 3152 3150 3149 3148 3147 3143 3138 3138 3136 3134 3131 3132 3130 3126 3125 3119
3153 3157 3160 3161 3164 3164 3167 3169 3170 3169 3170 3169 3168 3166 3165 3164 3163 3162 3160 3159 3160 3160 3160 3161 3160 3159 3158 3156 3154 3154 3153 3152 3149 3147 3145 3143 3143 3139 3136 3134 3133 3131 3129 3129 3130 3126 3122
3150 3152 3154 3157 3158 3160 3163 3164 3166 3165 3166 3166 3165 3165 3163 3162 3163 3160 3160 3158 3160 3159 3159 3159 3159 3158 3157 3155 3153 3153 3153 3151 3149 3146 3144 3142 3139 3134 3132 3130 3129 3130 3128 3127 3124 3121 3118
3144 3146 3149 3152 3154 3156 3157 3159 3161 3161 3162 3162 3162 3161 3161 3160 3160 3159 3159 3158 3158 3158 3158 3158 3158 3157 3156 3155 3153 3152 3151 3149 3147 3145 3143 3142 3136 3133 3129 3129 3125 3124 3122 3121 3120 3116 3111
3139 3141 3144 3146 3149 3151 3153 3154 3157 3157 3158 3159 3159 3158 3158 3157 3157 3157 3157 3156 3156 3156 3156 3155 3155 3155 3153 3152 3151 3149 3148 3145 3144 3142 3139 3137 3134 3134 3130 3125 3123 3118 3116 3114 3114 3110 3103
3132 3135 3138 3141 3143 3145 3147 3150 3152 3153 3154 3155 3155 3154 3155 3155 3154 3154 3154 3154 3153 3153 3154 3153 3152 3151 3151 3149 3147 3144 3143 3142 3139 3137 3135 3132 3127 3124 3122 3118 3116 3112 3109 3107 3101 3099 3097
3126 3130 3133 3136 3138 3140 3142 3145 3147 3148 3149 3150 3151 3152 3151 3151 3151 3151 3150 3150 3150 3150 3151 3150 3149 3147 3146 3144 3145 3140 3139 3137 3136 3132 3130 3126 3122 3116 3110 3109 3106 3101 3098 3096 3094 3091 3086
3120 3123 3127 3131 3133 3135 3138 3140 3141 3143 3144 3145 3145 3146 3147 3147 3146 3147 3147 3146 3146 3146 3146 3145 3145 3143 3141 3140 3138 3135 3133 3131 3129 3127 3124 3123 3118 3116 3105 3102 3098 3089 3085 3088 3087 3085 3083
3114 3117 3120 3123 3127 3130 3132 3135 3136 3138 3139 3141 3141 3142 3142 3141 3141 3143 3142 3142 3141 3141 3140 3139 3138 3137 3135 3131 3131 3129 3127 3125 3122 3119 3117 3114 3113 3112 3103 3101 3097 3087 3084 3079 3079 3079 3077
3105 3109 3112 3116 3120 3123 3126 3130 3132 3134 3135 3135 3136 3136 3135 3133 3136 3137 3137 3137 3135 3135 3135 3134 3132 3130 3127 3126 3125 3123 3121 3118 3114 3113 3111 3110 3109 3108 3105 3098 3090 3082 3079 3078 3076 3076 3074
3095 3099 3103 3107 3112 3116 3119 3122 3125 3127 3129 3129 3131 3130 3129 3127 3127 3131 3131 3131 3130 3129 3128 3128 3127 3125 3123 3120 3120 3118 3116 3114 3112 3109 3108 3107 3105 3106 3103 3102 3094 3080 3078 3073 3072 3069 3067
3084 3089 3092 3097 3102 3107 3110 3113 3116 3119 3120 3121 3123 3125 3123 3119 3119 3121 3122 3122 3122 3123 3121 3120 3119 3118 3118 3116 3115 3113 3110 3110 3109 3106 3104 3104 3100 3097 3096 3094 3084 3078 3075 3072 3071 3071 3063
3073 3079 3083 3087 3091 3097 3099 3103 3106 3109 3111 3112 3113 3116 3117 3112 3112 3112 3114 3113 3113 3113 3113 3113 3113 3111 3111 3111 3109 3107 3104 3103 3101 3101 3100 3101 3099 3093 3091 3089 3079 3073 3072 3073 3066 3061 3057
3062 3067 3072 3077 3082 3085 3088 3091 3095 3099 3102 3103 3102 3107 3108 3105 3103 3104 3104 3104 3105 3104 3105 3103 3105 3105 3104 3104 3104 3103 3103 3100 3096 3094 3093 3092 3091 3090 3088 3079 3073 3070 3065 3063 3060 3055 3050